MRN77 LESO-LEXJ

Flight info

Callsign MRN77
Flight time N/A
Altitude 8000
Route BLV
Aircraft C208/L-SDFGR/C

Departure

Time 2026-05-06 15:55
Airport San Sebastián Airport (LESO)

Arrival

Time N/A
Airport Seve Ballesteros-Santander Airport (LEXJ)
Time Latitude Longitude Altitude Speed Heading
2026-05-06 15:40 43.35512 -1.79393 15 ft 0 kts 128°
2026-05-06 15:51 43.35507 -1.79384 16 ft 5 kts 127°
2026-05-06 15:51 43.35514 -1.79331 16 ft 8 kts 55°
2026-05-06 15:51 43.35574 -1.79257 16 ft 12 kts 39°
2026-05-06 15:51 43.35630 -1.79200 16 ft 12 kts 36°
2026-05-06 15:52 43.35707 -1.79117 16 ft 11 kts 37°
2026-05-06 15:52 43.35721 -1.79051 17 ft 7 kts 91°
2026-05-06 15:52 43.35748 -1.78952 17 ft 16 kts 39°
2026-05-06 15:52 43.35859 -1.78839 19 ft 23 kts 36°
2026-05-06 15:53 43.35992 -1.78689 20 ft 21 kts 44°
2026-05-06 15:53 43.36079 -1.78585 21 ft 16 kts 36°
2026-05-06 15:53 43.36178 -1.78479 22 ft 19 kts 54°
2026-05-06 15:53 43.36233 -1.78382 22 ft 9 kts 342°
2026-05-06 15:54 43.36229 -1.78423 23 ft 0 kts 219°
2026-05-06 15:54 43.36224 -1.78428 23 ft 10 kts 220°
2026-05-06 15:54 43.36009 -1.78674 21 ft 67 kts 218°
2026-05-06 15:54 43.35558 -1.79151 127 ft 90 kts 221°
2026-05-06 15:55 43.35030 -1.79771 315 ft 106 kts 226°
2026-05-06 15:55 43.34449 -1.80442 600 ft 114 kts 221°
2026-05-06 15:55 43.33826 -1.81196 854 ft 125 kts 223°
2026-05-06 15:55 43.33171 -1.82025 1101 ft 131 kts 226°
2026-05-06 15:56 43.32570 -1.82979 1355 ft 134 kts 232°
2026-05-06 15:56 43.31988 -1.83977 1611 ft 134 kts 233°
2026-05-06 15:56 43.31392 -1.84954 1856 ft 133 kts 232°
2026-05-06 15:56 43.30784 -1.85910 2108 ft 133 kts 232°
2026-05-06 15:57 43.30169 -1.86862 2393 ft 134 kts 232°
2026-05-06 15:57 43.29548 -1.87824 2652 ft 135 kts 233°
2026-05-06 15:57 43.28923 -1.88796 2910 ft 136 kts 234°
2026-05-06 15:57 43.28420 -1.89867 3134 ft 132 kts 246°
2026-05-06 15:58 43.28023 -1.90995 3386 ft 129 kts 257°
2026-05-06 15:58 43.27965 -1.92202 3649 ft 127 kts 275°
2026-05-06 15:58 43.28014 -1.93418 3910 ft 128 kts 276°
2026-05-06 15:58 43.28066 -1.94650 4181 ft 130 kts 276°
2026-05-06 15:59 43.28096 -1.95490 4356 ft 131 kts 276°
2026-05-06 15:59 43.28138 -1.96745 4610 ft 132 kts 275°
2026-05-06 15:59 43.28175 -1.98001 4851 ft 131 kts 274°
2026-05-06 15:59 43.28212 -1.99670 5194 ft 131 kts 275°
2026-05-06 16:00 43.28242 -2.00495 5368 ft 131 kts 275°
2026-05-06 16:00 43.28281 -2.01744 5614 ft 131 kts 275°
2026-05-06 16:00 43.28317 -2.02990 5870 ft 131 kts 275°
2026-05-06 16:00 43.28350 -2.04235 6131 ft 130 kts 275°
2026-05-06 16:01 43.28382 -2.05477 6394 ft 130 kts 275°
2026-05-06 16:01 43.28415 -2.06718 6640 ft 130 kts 275°
2026-05-06 16:01 43.28447 -2.07960 6885 ft 131 kts 275°
2026-05-06 16:01 43.28479 -2.09256 7019 ft 140 kts 274°
2026-05-06 16:02 43.28518 -2.10609 7140 ft 144 kts 276°
2026-05-06 16:02 43.28563 -2.12005 7267 ft 149 kts 275°
2026-05-06 16:02 43.28601 -2.13438 7394 ft 151 kts 275°
2026-05-06 16:02 43.28636 -2.14888 7509 ft 153 kts 275°
2026-05-06 16:03 43.28673 -2.16347 7638 ft 153 kts 275°
2026-05-06 16:03 43.28710 -2.17813 7764 ft 154 kts 274°
2026-05-06 16:03 43.28748 -2.19286 7864 ft 154 kts 274°
2026-05-06 16:03 43.28770 -2.20760 7955 ft 156 kts 274°
2026-05-06 16:04 43.28816 -2.22271 7997 ft 161 kts 275°
2026-05-06 16:04 43.28868 -2.23814 7997 ft 163 kts 274°
2026-05-06 16:04 43.28909 -2.25377 8027 ft 165 kts 274°
2026-05-06 16:04 43.28948 -2.26971 8034 ft 169 kts 274°
2026-05-06 16:05 43.28986 -2.28586 8031 ft 171 kts 274°
2026-05-06 16:05 43.29025 -2.30221 8033 ft 172 kts 274°
2026-05-06 16:05 43.29061 -2.31867 8030 ft 173 kts 274°
2026-05-06 16:05 43.29102 -2.33520 8029 ft 173 kts 274°
2026-05-06 16:06 43.29144 -2.35173 8033 ft 174 kts 274°
2026-05-06 16:06 43.29184 -2.36834 8030 ft 174 kts 274°
2026-05-06 16:06 43.29223 -2.38491 8028 ft 174 kts 274°
2026-05-06 16:06 43.29262 -2.40148 8033 ft 174 kts 274°
2026-05-06 16:07 43.29300 -2.41812 8031 ft 174 kts 274°
2026-05-06 16:07 43.29343 -2.43499 8036 ft 175 kts 274°
2026-05-06 16:07 43.29385 -2.45171 8047 ft 176 kts 274°
2026-05-06 16:07 43.29414 -2.46750 8036 ft 177 kts 274°
2026-05-06 16:08 43.29437 -2.47813 8027 ft 176 kts 274°
2026-05-06 16:08 43.29477 -2.49473 8017 ft 176 kts 274°
2026-05-06 16:08 43.29516 -2.51148 8015 ft 175 kts 274°
2026-05-06 16:08 43.29555 -2.52809 8019 ft 174 kts 274°
2026-05-06 16:09 43.29593 -2.54467 8021 ft 174 kts 274°
2026-05-06 16:09 43.29630 -2.56128 8027 ft 174 kts 274°
2026-05-06 16:09 43.29669 -2.57817 8037 ft 175 kts 274°
2026-05-06 16:09 43.29704 -2.59492 8017 ft 175 kts 273°
2026-05-06 16:10 43.29741 -2.61159 8021 ft 174 kts 273°
2026-05-06 16:10 43.29777 -2.62798 8014 ft 173 kts 273°
2026-05-06 16:10 43.29813 -2.64448 8021 ft 173 kts 273°
2026-05-06 16:10 43.29848 -2.66105 8023 ft 173 kts 273°
2026-05-06 16:11 43.29884 -2.67774 8025 ft 173 kts 273°
2026-05-06 16:11 43.29921 -2.69401 8022 ft 173 kts 273°
2026-05-06 16:11 43.29956 -2.71074 8020 ft 173 kts 273°
2026-05-06 16:11 43.29989 -2.72722 8019 ft 173 kts 273°
2026-05-06 16:12 43.30024 -2.74369 8024 ft 173 kts 273°
2026-05-06 16:12 43.30058 -2.76019 8027 ft 173 kts 273°
2026-05-06 16:12 43.30094 -2.77672 8027 ft 174 kts 273°
2026-05-06 16:12 43.30127 -2.79332 8025 ft 174 kts 273°
2026-05-06 16:13 43.30160 -2.80993 8018 ft 174 kts 273°
2026-05-06 16:13 43.30193 -2.82653 8018 ft 174 kts 273°
2026-05-06 16:13 43.30224 -2.84310 8024 ft 174 kts 273°
2026-05-06 16:13 43.30259 -2.85966 8021 ft 173 kts 273°
2026-05-06 16:14 43.30292 -2.87620 8021 ft 173 kts 273°
2026-05-06 16:14 43.30325 -2.89275 8019 ft 173 kts 273°
2026-05-06 16:14 43.30356 -2.90926 8021 ft 173 kts 273°
2026-05-06 16:14 43.30388 -2.92579 8018 ft 173 kts 273°
2026-05-06 16:15 43.30502 -2.94219 8020 ft 172 kts 280°
2026-05-06 16:15 43.30752 -2.95823 8018 ft 172 kts 283°
2026-05-06 16:15 43.31002 -2.97425 8019 ft 171 kts 283°
2026-05-06 16:15 43.31250 -2.99031 8025 ft 172 kts 282°
2026-05-06 16:16 43.31498 -3.00638 8023 ft 172 kts 282°